#timestamp,LO_Frequency,Hit,Temp,Hum 
1479553215.5,286046902.7,N,0.0,0.0
1479553235.4,286046902.3,N,0.0,0.0
1479553255.2,286046902.5,N,0.0,0.0
1479553275.0,286046903.1,N,0.0,0.0
1479553275.9,286046903.1,N,0.0,0.0
1479553295.8,286046901.0,N,0.0,0.0
1479553315.6,286046900.8,N,0.0,0.0
1479553335.5,286046901.5,N,0.0,0.0
1479553355.3,286046899.4,N,0.0,0.0
1479553375.1,286046901.5,N,0.0,0.0
1479553395.9,286046901.8,N,0.0,0.0
1479553415.7,286046901.5,N,0.0,0.0
1479553435.5,286046900.0,N,0.0,0.0
1479553455.4,286046897.8,N,0.0,0.0
1479553475.2,286046898.0,N,0.0,0.0
1479553495.1,286046898.1,N,0.0,0.0
1479553496.0,286046898.1,N,0.0,0.0
1479553515.8,286046896.0,N,0.0,0.0
1479553535.6,286046896.6,N,0.0,0.0
1479553555.5,286046894.1,N,0.0,0.0
1479553575.3,286046896.1,N,0.0,0.0
1479553595.2,286046896.5,N,0.0,0.0
1479553615.9,286046896.8,N,0.0,0.0
1479553635.7,286046894.4,N,0.0,0.0
1479553655.6,286046894.5,N,0.0,0.0
1479553675.4,286046895.5,N,0.0,0.0
1479553695.2,286046895.5,N,0.0,0.0
1479553715.1,286046892.6,N,0.0,0.0
1479553716.0,286046892.6,N,0.0,0.0
1479553735.8,286046895.6,N,0.0,0.0
1479553755.7,286046893.1,N,0.0,0.0
1479553775.5,286046893.1,N,0.0,0.0
1479553795.3,286046893.6,N,0.0,0.0
1479553815.2,286046893.7,N,0.0,0.0
1479553835.0,286046890.9,N,0.0,0.0
1479553835.9,286046890.9,N,0.0,0.0
1479553855.8,286046891.1,N,0.0,0.0
1479553875.6,286046891.1,N,0.0,0.0
1479553895.4,286046891.0,N,0.0,0.0
1479553915.3,286046891.9,N,0.0,0.0
1479553935.1,286046889.9,N,0.0,0.0
1479553955.8,286046890.3,N,0.0,0.0
1479553975.7,286046890.7,N,0.0,0.0
1479553995.5,286046888.7,N,0.0,0.0
1479554015.4,286046888.8,N,0.0,0.0
1479554035.2,286046889.1,N,0.0,0.0
1479554055.0,286046888.3,N,0.0,0.0
1479554055.9,286046888.3,N,0.0,0.0
1479554075.8,286046888.2,N,0.0,0.0
1479554095.6,286046890.8,N,0.0,0.0
1479554115.5,286046888.1,N,0.0,0.0
1479554135.3,286046887.9,N,0.0,0.0
1479554155.1,286046886.6,N,0.0,0.0
1479554175.9,286046887.0,N,0.0,0.0
1479554195.7,286046886.8,N,0.0,0.0
1479554215.5,286046884.6,N,0.0,0.0
1479554235.4,286046885.8,N,0.0,0.0
1479554255.2,286046885.2,N,0.0,0.0
1479554275.1,286046884.7,N,0.0,0.0
1479554276.0,286046884.7,N,0.0,0.0
1479554295.8,286046885.0,N,0.0,0.0
1479554315.6,286046883.2,N,0.0,0.0
1479554335.5,286046883.6,N,0.0,0.0
1479554355.3,286046883.5,N,0.0,0.0
1479554375.2,286046885.7,N,0.0,0.0
1479554395.9,286046883.8,N,0.0,0.0
1479554415.7,286046881.6,N,0.0,0.0
1479554435.6,286046881.6,N,0.0,0.0
1479554455.4,286046882.3,N,0.0,0.0
1479554475.2,286046879.9,N,0.0,0.0
1479554495.1,286046880.9,N,0.0,0.0
1479554496.0,286046880.9,N,0.0,0.0
1479554515.8,286046881.0,N,0.0,0.0
1479554535.7,286046881.1,N,0.0,0.0
1479554555.5,286046879.0,N,0.0,0.0
1479554575.3,286046878.9,N,0.0,0.0
1479554595.2,286046878.4,N,0.0,0.0
1479554615.0,286046878.2,N,0.0,0.0
1479554615.9,286046878.2,N,0.0,0.0
1479554635.8,286046879.4,N,0.0,0.0
1479554655.6,286046879.1,N,0.0,0.0
1479554675.4,286046879.3,N,0.0,0.0
1479554695.3,286046878.6,N,0.0,0.0
1479554715.1,286046879.3,N,0.0,0.0
1479554735.8,286046879.4,N,0.0,0.0
1479554755.7,286046879.4,N,0.0,0.0
1479554775.5,286046878.6,N,0.0,0.0
1479554795.4,286046879.0,N,0.0,0.0
1479554815.2,286046878.4,N,0.0,0.0
1479554835.0,286046878.3,N,0.0,0.0
1479554835.9,286046878.3,N,0.0,0.0
1479554855.8,286046880.7,N,0.0,0.0
1479554875.6,286046880.7,N,0.0,0.0
1479554895.4,286046881.0,N,0.0,0.0
1479554915.3,286046880.3,N,0.0,0.0
1479554935.1,286046882.0,N,0.0,0.0
1479554955.9,286046879.8,N,0.0,0.0
1479554975.7,286046882.4,N,0.0,0.0
1479554995.5,286046882.4,N,0.0,0.0
1479555015.4,286046882.3,N,0.0,0.0
1479555035.2,286046879.9,N,0.0,0.0
1479555055.0,286046882.8,N,0.0,0.0
1479555056.0,286046882.8,N,0.0,0.0
1479555075.8,286046882.3,N,0.0,0.0
1479555095.6,286046884.4,N,0.0,0.0
1479555115.5,286046881.5,N,0.0,0.0
1479555135.3,286046884.3,N,0.0,0.0
1479555155.1,286046884.2,N,0.0,0.0
1479555175.9,286046885.6,N,0.0,0.0
1479555195.7,286046885.4,N,0.0,0.0
1479555215.6,286046885.4,N,0.0,0.0
1479555235.4,286046885.4,N,0.0,0.0
1479555255.2,286046884.8,N,0.0,0.0
1479555275.1,286046885.5,N,0.0,0.0
1479555276.0,286046885.5,N,0.0,0.0
1479555295.8,286046883.0,N,0.0,0.0
1479555315.7,286046883.3,N,0.0,0.0
1479555335.5,286046885.4,N,0.0,0.0
1479555355.3,286046885.5,N,0.0,0.0
1479555375.2,286046885.2,N,0.0,0.0
1479555395.9,286046885.0,N,0.0,0.0
1479555415.7,286046886.6,N,0.0,0.0
1479555435.6,286046887.4,N,0.0,0.0
1479555455.4,286046887.6,N,0.0,0.0
1479555475.3,286046887.6,N,0.0,0.0
1479555495.1,286046886.4,N,0.0,0.0
1479555496.0,286046886.4,N,0.0,0.0
1479555515.8,286046886.9,N,0.0,0.0
1479555535.7,286046886.9,N,0.0,0.0
1479555555.5,286046887.4,N,0.0,0.0
1479555575.3,286046886.8,N,0.0,0.0
1479555595.2,286046887.5,N,0.0,0.0
1479555615.0,286046887.5,N,0.0,0.0
1479555615.9,286046887.5,N,0.0,0.0
1479555635.8,286046886.8,N,0.0,0.0
1479555655.6,286046888.4,N,0.0,0.0
1479555675.4,286046888.6,N,0.0,0.0
1479555695.3,286046888.8,N,0.0,0.0
1479555715.1,286046889.0,N,0.0,0.0
1479555735.9,286046888.4,N,0.0,0.0
1479555755.7,286046888.6,N,0.0,0.0
1479555775.5,286046888.6,N,0.0,0.0
1479555795.4,286046888.7,N,0.0,0.0
1479555815.2,286046888.7,N,0.0,0.0
1479555835.0,286046886.2,N,0.0,0.0
1479555835.9,286046886.2,N,0.0,0.0
1479555855.8,286046888.4,N,0.0,0.0
1479555875.6,286046890.8,N,0.0,0.0
1479555895.5,286046890.1,N,0.0,0.0
1479555915.3,286046887.8,N,0.0,0.0
1479555935.1,286046890.4,N,0.0,0.0
1479555955.9,286046889.9,N,0.0,0.0
1479555975.7,286046889.4,N,0.0,0.0
1479555995.5,286046892.4,N,0.0,0.0
1479556015.4,286046892.1,N,0.0,0.0
1479556035.2,286046891.2,N,0.0,0.0
1479556055.1,286046893.4,N,0.0,0.0
1479556056.0,286046893.4,N,0.0,0.0
1479556075.8,286046890.9,N,0.0,0.0
1479556095.6,286046891.0,N,0.0,0.0
1479556115.5,286046890.9,N,0.0,0.0
1479556135.3,286046893.1,N,0.0,0.0
1479556155.2,286046893.6,N,0.0,0.0
1479556175.9,286046893.2,N,0.0,0.0
1479556195.7,286046895.6,N,0.0,0.0
1479556215.6,286046897.2,N,0.0,0.0
1479556235.4,286046894.4,N,0.0,0.0
1479556255.2,286046897.1,N,0.0,0.0
1479556275.1,286046896.9,N,0.0,0.0
1479556276.0,286046896.9,N,0.0,0.0
1479556295.8,286046896.2,N,0.0,0.0
1479556315.7,286046896.3,N,0.0,0.0
1479556335.5,286046898.8,N,0.0,0.0
1479556355.3,286046896.2,N,0.0,0.0
1479556375.2,286046897.9,N,0.0,0.0
1479556395.0,286046898.2,N,0.0,0.0
1479556395.9,286046898.2,N,0.0,0.0
1479556415.8,286046898.3,N,0.0,0.0
1479556435.6,286046898.4,N,0.0,0.0
1479556455.4,286046897.6,N,0.0,0.0
1479556475.3,286046897.9,N,0.0,0.0
1479556495.1,286046900.3,N,0.0,0.0
1479556515.8,286046897.5,N,0.0,0.0
1479556535.7,286046897.8,N,0.0,0.0
1479556555.5,286046897.3,N,0.0,0.0
1479556575.4,286046899.7,N,0.0,0.0
1479556595.2,286046899.7,N,0.0,0.0
1479556615.0,286046900.2,N,0.0,0.0
1479556615.9,286046900.2,N,0.0,0.0
1479556635.8,286046897.5,N,0.0,0.0
1479556655.6,286046899.9,N,0.0,0.0
1479556675.5,286046899.4,N,0.0,0.0
1479556695.3,286046901.8,N,0.0,0.0
1479556715.1,286046901.6,N,0.0,0.0
1479556735.9,286046901.6,N,0.0,0.0
1479556755.7,286046901.7,N,0.0,0.0
1479556775.5,286046900.5,N,0.0,0.0
1479556795.4,286046901.3,N,0.0,0.0
